Regional Weather Roundup
Issued by NWS

Home | Current Version | Previous Version | Graphics & Text | Print | Product List | Glossary Off
Versions: 1 2 3 4 5 6 7 8 9 10 11 12 13 14 15 16 17 18 19 20 21 22 23 24 25 26 27 28 29 30 31 32 33 34 35 36 37 38 39 40 41 42 43 44 45 46 47 48 49 50

000
ASUS43 KMKX 012111
RWRWI

WISCONSIN REGIONAL WEATHER ROUNDUP
NATIONAL WEATHER SERVICE MILWAUKEE/SULLIVAN WI
400 PM CDT WED OCT 01 2014

NOTE: "FAIR" INDICATES FEW OR NO CLOUDS BELOW 12,000 FEET WITH NO
SIGNIFICANT WEATHER AND/OR OBSTRUCTIONS TO VISIBILITY.

WIZ001-002-006>008-014>016-023>028-012200-
NORTHWEST WISCONSIN

CITY           SKY/WX    TMP DP  RH WIND       PRES   REMARKS
SUPERIOR ARPT  LGT RAIN  51  50  98 E5        29.80F
ASHLAND        RAIN      51  50  96 W3        29.84R FOG
HAYWARD        LGT RAIN  51  50  96 S6        29.82F FOG
SIREN          DRIZZLE   51  50  96 SE7       29.78F
CUMBERLAND     DRIZZLE   50  48  93 SE7       29.81F
RICE LAKE      CLOUDY    51  50  95 SE6       29.83F
CHETEK         LGT RAIN  52  51  97 SE5       29.82F
LADYSMITH      RAIN      54  52  94 SE3       29.84F
EAU CLAIRE     CLOUDY    54  52  93 S5        29.81F
MENOMONIE      CLOUDY    54  53  97 SE3       29.82S FOG
NEW RICHMOND   CLOUDY    53  52  99 SE9       29.80S
OSCEOLA        CLOUDY    54  54 100 SE8       29.81S
$$

WIZ003>005-009-010-017-018-012200-
NORTH CENTRAL WISCONSIN

CITY           SKY/WX    TMP DP  RH WIND       PRES   REMARKS
MANITOWISH WTR CLOUDY    52  51  95 SE7       29.83F
ARBOR VITAE    CLOUDY    57  54  89 SE9       29.84F
WOODRUFF       CLOUDY    57  54  89 SE9       29.84F
RHINELANDER    CLOUDY    54  50  86 SE9       29.87F
EAGLE RIVER    LGT RAIN  54  48  80 SE6       29.86F
LAND O LAKES   LGT RAIN  56  48  73 SE7       29.87F
PHILLIPS       CLOUDY    53  50  90 SE9       29.82S
TOMAHAWK       CLOUDY    55  50  84 SE5       29.86S
MEDFORD        HVY RAIN  54  51  90 SE10      29.84F
MERRILL        CLOUDY    57  53  87 CALM      29.87R
$$

WIZ029-030-035-036-043>047-012200-
CENTRAL WISCONSIN

CITY           SKY/WX    TMP DP  RH WIND       PRES   REMARKS
WAUSAU         CLOUDY    60  51  72 SE8       29.85F
MOSINEE        CLOUDY    59  54  82 SE8       29.87
MARSHFIELD     LGT RAIN  58  52  80 SE9       29.86S
STEVENS POINT  CLOUDY    60  50  70 SE6       29.87S
WAUPACA        PTSUNNY   67  53  59 SE12G17   29.88S
WAUTOMA        NOT AVBL
WISC RAPIDS    CLOUDY    61  52  72 SE5       29.87F
CAMP DOUGLAS   CLOUDY    65  59  81 SE7       29.83F
$$

WIZ011>013-019>022-031-037>040-048>050-012200-
NORTHEAST WISCONSIN

CITY           SKY/WX    TMP DP  RH WIND       PRES   REMARKS
ANTIGO         PTSUNNY   57  51  80 SE14      29.88F
SHAWANO        PTSUNNY   65  53  66 SE12G20   29.90F
OCONTO         CLOUDY    56  53  88 SE9       29.93S
STURGEON BAY   NOT AVBL
GREEN BAY      CLOUDY    60  52  74 SE14      29.92F
MANITOWOC      NOT AVBL
APPLETON       PTSUNNY   63  50  63 SE17      29.90F
CLINTONVILLE   PTSUNNY   64  50  59 SE12      29.88F
OSHKOSH        PTSUNNY   64  52  64 SE14G21   29.88F
$$

WIZ032>034-041-042-053>061-012200-
SOUTHWEST WISCONSIN

CITY           SKY/WX    TMP DP  RH WIND       PRES   REMARKS
LA CROSSE      CLOUDY    63  55  75 CALM      29.81F
SPARTA         CLOUDY    63  52  67 SE5       29.84S
VIROQUA        CLOUDY    65  54  65 SE8       29.83S
BOSCOBEL       CLOUDY    71  55  56 VRB6      29.82F
PRAIRIE DU CHI SUNNY     69  52  55 S6        29.80F
PLATTEVILLE    MOSUNNY   72  56  57 S14       29.84S
$$

WIZ056-057-062-063-064-067-068-012200-
SOUTH CENTRAL WISCONSIN

CITY           SKY/WX    TMP DP  RH WIND       PRES   REMARKS
REEDSBURG      CLOUDY    68  55  62 SE8       29.84S
BARABOO/DELLS  CLOUDY    67  52  57 SE7       29.85S
LONE ROCK      CLOUDY    74  54  49 SE10      29.83F
MINERAL POINT  CLOUDY    72  54  53 SE10      29.84F
MADISON        PTSUNNY   69  53  56 SE14      29.86S
MIDDLETON      PTSUNNY   70  52  52 SE8       29.86S
WATERTOWN      PTSUNNY   66  53  64 SE8       29.87S
MONROE         CLOUDY    70  55  60 SE10G17   29.85F
JANESVILLE     SUNNY     72  52  49 SE13      29.86
$$

WIZ051-052-058>065-066-070>072-012200-
SOUTHEAST WISCONSIN

CITY           SKY/WX    TMP DP  RH WIND       PRES   REMARKS
MILWAUKEE      PTSUNNY   60  51  72 SE17      29.93F
WAUKESHA       SUNNY     63  52  67 SE12      29.92F
MILWAUKEE/TIMM SUNNY     61  48  63 SE16      29.93F
RACINE         MOSUNNY   61  51  70 SE16G25   29.94F
BURLINGTON     PTSUNNY   63  51  64 SE10G16   29.91R
KENOSHA        PTSUNNY   61  52  72 SE15      29.92F
FOND DU LAC    PTSUNNY   63  51  65 SE16      29.89F
SHEBOYGAN      CLOUDY    58  52  80 SE12G21   29.93F
WEST BEND      PTSUNNY   59  48  67 SE13G21   29.92S
JUNEAU         PTSUNNY   65  53  63 E10       29.89S
$$

LSZ147-162-012200-
LAKE SUPERIOR

STATION/POSITION TIME  TEMP    WIND        PRES    WAVE
                       AIR SEA DIR/SP/G            HT/PER
                 (UTC) (F)     (DEG/KT/KT) (MB)    (FT/S)
W MID LAKE BUOY  2050   49 50   50/  6/  8 1010.6F   1
DEVILS ISLAND    2100   49      90/  4/  5 1010.7R
SAXON HARBOR     2000   52        CALM     1009.5F
$$

LMZ867-665-643>646-012200-
LAKE MICHIGAN

STATION/POSITION TIME  TEMP    WIND        PRES    WAVE
                       AIR SEA DIR/SP/G            HT/PER
                 (UTC) (F)     (DEG/KT/KT) (MB)    (FT/S)
CHAMBERS ISLAND  2000   57     130/  5/ 12 1015.2S
S GREEN BAY BUOY 2030   57                 1014.6
N MID LAKE BUOY  2050   56 58  190/  8/  8 1015.2F   1/ 3
NORTHPORT PIER   2000   56     150/ 12/ 16 1015.2S
KEWAUNEE LAKESHO 2000   55     150/ 13/ 17 1014.0F
SHEBOYGAN LAKESH 2100   56 57  130/ 20/ 22 1013.7F
PORT WASHINGTON  2000   59     160/ 11/ 15 1014.6
ATWATER BUOY     2000   58     150/ 16/ 19 1015.0F
MILWAUKEE LAKESH 2000   58     150/ 16/ 18   N/A
S MID LAKE BUOY  2050   59 61  110/ 14/ 16 1013.9F   2/ 3
KENOSHA   LAKESH 2100   61     140/ 18/ 19 1013.2S
$$

TC  - TEMPERATURE IN CELSIUS
VSB - VISIBILITY IN STATUTE MILES
WCI - WIND CHILL INDEX
HX  - HEAT INDEX



USA.gov is the U.S. government's official web portal to all federal, state and local government web resources and services.